TimeEST,TemperatureF,Dew PointF,Humidity,Sea Level PressureIn,VisibilityMPH,Wind Direction,Wind SpeedMPH,Gust SpeedMPH,PrecipitationIn,Events,Conditions,WindDirDegrees,DateUTC
12:54 AM,25.0,19.9,81,29.89,10.0,West,12.7,-,N/A,,Mostly Cloudy,280,2012-12-30 05:54:00
1:54 AM,23.0,18.0,81,29.92,10.0,West,11.5,-,N/A,,Scattered Clouds,280,2012-12-30 06:54:00
2:54 AM,23.0,18.0,81,29.95,10.0,West,11.5,-,N/A,,Mostly Cloudy,280,2012-12-30 07:54:00
3:54 AM,21.9,17.1,82,29.98,10.0,West,6.9,-,N/A,,Mostly Cloudy,270,2012-12-30 08:54:00
4:21 AM,23.0,15.8,74,29.96,10.0,WNW,10.4,-,N/A,,Overcast,290,2012-12-30 09:21:00
4:54 AM,21.9,16.0,78,30.01,10.0,WNW,10.4,-,N/A,,Overcast,290,2012-12-30 09:54:00
5:54 AM,21.9,17.1,82,30.04,7.0,West,8.1,-,0.00,Snow,Light Snow,280,2012-12-30 10:54:00
6:54 AM,24.1,14.0,65,30.07,8.0,WNW,11.5,-,0.00,Snow,Light Snow,300,2012-12-30 11:54:00
7:54 AM,21.0,16.0,81,30.11,7.0,WSW,11.5,-,0.00,Snow,Light Snow,250,2012-12-30 12:54:00
8:54 AM,23.0,17.1,78,30.14,9.0,West,11.5,-,0.00,Snow,Light Snow,280,2012-12-30 13:54:00
9:10 AM,23.0,17.6,80,30.12,9.0,West,9.2,-,0.00,,Mostly Cloudy,280,2012-12-30 14:10:00
9:54 AM,25.0,18.0,75,30.18,10.0,West,10.4,-,0.00,,Scattered Clouds,270,2012-12-30 14:54:00
10:54 AM,26.1,14.0,60,30.21,10.0,WNW,16.1,-,N/A,,Scattered Clouds,290,2012-12-30 15:54:00
11:54 AM,27.0,12.9,56,30.22,10.0,WNW,17.3,25.3,N/A,,Mostly Cloudy,300,2012-12-30 16:54:00
12:54 PM,27.0,16.0,63,30.21,10.0,WNW,8.1,-,N/A,,Scattered Clouds,300,2012-12-30 17:54:00
1:54 PM,27.0,14.0,58,30.22,10.0,WNW,9.2,-,N/A,,Mostly Cloudy,300,2012-12-30 18:54:00
2:54 PM,28.0,14.0,56,30.23,10.0,West,9.2,-,N/A,,Mostly Cloudy,270,2012-12-30 19:54:00
3:54 PM,28.0,15.1,58,30.25,10.0,West,10.4,-,N/A,,Mostly Cloudy,260,2012-12-30 20:54:00
4:54 PM,28.0,15.1,58,30.26,10.0,West,9.2,-,0.00,Snow,Light Snow,260,2012-12-30 21:54:00
5:54 PM,27.0,18.0,69,30.26,9.0,SW,5.8,-,0.00,Snow,Light Snow,230,2012-12-30 22:54:00
6:54 PM,27.0,18.0,69,30.25,10.0,WSW,4.6,-,0.00,,Scattered Clouds,240,2012-12-30 23:54:00
7:54 PM,27.0,19.9,75,30.23,10.0,West,6.9,-,N/A,,Overcast,260,2012-12-31 00:54:00
8:12 PM,28.4,19.4,69,30.19,10.0,West,8.1,-,N/A,,Overcast,270,2012-12-31 01:12:00
8:54 PM,28.0,19.9,72,30.23,10.0,West,9.2,-,0.00,Snow,Light Snow,270,2012-12-31 01:54:00
9:54 PM,28.9,21.0,72,30.22,10.0,West,8.1,-,0.00,Snow,Light Snow,260,2012-12-31 02:54:00
10:54 PM,30.0,23.0,75,30.22,9.0,WSW,18.4,33.4,0.00,Snow,Light Snow,240,2012-12-31 03:54:00
11:54 PM,28.0,23.0,81,30.20,9.0,WSW,23.0,32.2,0.00,Snow,Light Snow,240,2012-12-31 04:54:00